Location: Bastogne Gables
(35.1554°N, 78.9900°W)
Time: 20:46:09
(UTC+00:00)

USA 307 - Pass Details

Date: 29 October 2020
Orbit: 569 x 579 km, 54.0° (Epoch: 23 November)

Event Time Altitude Azimuth Distance (km) Brightness Sun altitude
Rises 23:28:28 0° 326° (NW) 2,784 6.8 -13.7°
Reaches altitude 10° 23:31:13 10° 344° (NNW) 1,881 5.7 -14.3°
Maximum altitude 23:34:26 20° 32° (NNE) 1,336 4.4 -14.9°
Enters shadow 23:35:05 20° 45° (NE) 1,362 4.4 -15.1°
